Вернуться в каталог

DELTA 1 DEB

АктивенLEO
NORAD 2224·DEBRIS·🇺🇸 United States

Запущен Feb 28, 1966 с Cape Canaveral Space Force Station

Loading…

Ближайшие Пролёты (ближайшие 24 часа)

TLE

СвежийSource: Space-Track

Эпоха: Sep 14, 2026, 05:33 UTC

1 02224U 66016D   26257.23173516 -.00000001  00000-0  24796-3 0  9992
2 02224 101.1466 171.2153 0138475  48.7233 104.7379 12.52180213757045

Отслеживайте DELTA 1 DEB в реальном времени с AllMySat

Download on the App Store